Weather in Ardym

Russia / Penza Oblast     53°02′36″N   44°51′56″E
temp.,
°C
wind,
m/s
gust,
m/s
humid.,
%
clouds,
%
prec.,
mm/h
press.,
hPa
HPBL,
m
28 february, sun
sun2800:00−14nnw41092100 0.0 1010352
03:00−16nw499579 0.0 1012225
06:00−18nw369765 0.0 1013114
09:00−16nnw489574 0.0 1014289
12:00−13nnw479082 0.0 1014440
15:00−11nw479090 0.0 1015514
18:00−14nw3395100 0.0 101633
21:00−16nnw239593 0.0 101922
1 march, mon
mon100:00−17nnw229753 0.0 102020
03:00−18nnw239732 0.0 102220
06:00−19nnw22980 0.0 102320
09:00−16nnw23940 0.0 1025107
12:00−12wnw238943 0.0 1025269
15:00−10wnw359260 0.0 1025321
18:00−13wsw349679 0.0 102461
21:00−12sw499766 0.0 1023146
2 march, tue
tue200:00−8wsw61295100 0.1 1020399
03:00−5wsw81495100 0.4 1017520
06:00−3wsw81595100 1.1 1013700
09:00−1wsw81494100 1.6 1010796
12:00+1w71499100 0.7 1008733
15:000wnw51099100 1.3 1007521
18:000nw5997100 0.8 1006505
21:00−4wnw349693 0.8 100787
3 march, wed
wed300:00−5nw3694100 0.0 1006101
03:00−7nw349396 0.0 100758
06:00−8nw479581 0.0 100895
09:00−5nw499684 0.0 1009293
12:00−2nw5793100 0.2 1010596
15:00−2nw5889100 0.4 1011776
18:00−4nw3694100 0.1 1012149
21:00−7nw359593 0.1 101592
4 march, thu
thu400:00−10w349460 0.1 101570
03:00−11wsw479635 0.1 1015115
06:00−9sw5119584 0.1 1013275
09:00−5sw7139492 0.2 1011526
12:00−3wsw91592100 0.1 1007707
15:000wsw101686100 0.1 1005927
18:00−1wsw91686100 0.0 10041067
21:00−1wsw81593100 0.1 1004864